Content
SEND FEEDBACK

Daily
Averages
Monthly
Summary
United States of America

WILLIAMSPORT, MARYLAND


Home > North America > United States > Maryland
Elevation: 36 feet     Latitude: 39 37N     Longitude: 077 51W

WEATHER
 
SELECT A DAY
Number of Records: 186,838;   Date Range: 1/1/95 - 7/27/14
 
SHARE

PRINT THIS DATA

[ ← Previous Day ]
WEATHER ALMANAC - JUNE 18, 2014
[ Next Day → ]
[ °C ]   °F
Weather ElementAverageHighLow
Temperature82.9 °F90 °F (4:53 pm)73.9 °F (11:53 pm)
Dewpoint66.7 °F71.1 °F (8:53 pm)57.9 °F (3:53 am)
Humidity58.6 %82 % (11:53 pm)46 % (3:53 pm)
Barometer30.01 in30.06 in (11:53 am)29.99 in (3:53 am)
Wind Speed6.5 mph18.4 mph (11:53 am)
Wind Gust23 mph (11:53 am)
Weather ElementAverage
Visibility9.7 mi
Wind DirectionSSW (200 °)

Weather ElementTotal
Precipitation0.07 in
Cooling Degree Days17 (Base 65)
Growing Degree Days32 (Base 50)
Averaged from 24 records on June 18, 2014
WEATHER CONDITIONS BREAKOUT
WIND DIRECTION BREAKOUT
WEATHER BY HOUR - JUNE 18, 2014
[ °C ]   °F
Local TimeTemperatureDewpointHumidityBarometerVisibilityWind DirectionWind SpeedGust SpeedPrecipitationEventsConditions
1:53 AM82.0 °F62.1 °F51 %30.02 in10.0 miWSW (250°)8.1 mphClear
2:53 AM79.0 °F62.1 °F56 %30.03 in10.0 miWNW (300°)5.8 mphScattered Clouds
3:53 AM78.1 °F57.9 °F50 %29.99 in10.0 miCalmClear
4:53 AM77.0 °F62.1 °F60 %29.99 in10.0 miSW (230°)6.9 mphClear
6:53 AM77.0 °F63.0 °F62 %30.01 in10.0 miSW (220°)9.2 mphMostly Cloudy
7:53 AM78.1 °F64.9 °F64 %30.00 in10.0 miSSW (210°)6.9 mphClear
8:53 AM80.1 °F66.0 °F62 %30.01 in10.0 miWSW (240°)5.8 mphOvercast
9:53 AM81.0 °F66.9 °F62 %30.02 in10.0 miSW (220°)4.6 mphMostly Cloudy
10:53 AM84.0 °F70.0 °F63 %30.04 in10.0 miWest (270°)8.1 mphScattered Clouds
11:53 AM86.0 °F69.1 °F57 %30.06 in10.0 miNW (320°)18.4 mph23.0 mphScattered Clouds
12:53 PM86.0 °F69.1 °F57 %30.05 in9.0 miWNW (300°)13.8 mphMostly Cloudy
1:53 PM87.1 °F68.0 °F53 %30.03 in9.0 miWNW (300°)11.5 mphClear
2:53 PM88.0 °F66.9 °F49 %30.03 in10.0 miWest (270°)8.1 mphClear
3:53 PM89.1 °F66.0 °F46 %30.01 in10.0 miWest (270°)10.4 mphClear
4:53 PM90.0 °F66.9 °F46 %30.01 in10.0 miWest (270°)9.2 mphClear
5:53 PM89.1 °F68.0 °F50 %30.00 in10.0 miWest (260°)10.4 mphClear
6:53 PM88.0 °F68.0 °F51 %29.99 in10.0 miWSW (250°)6.9 mphClear
7:53 PM86.0 °F70.0 °F59 %30.00 in9.0 miWest (270°)3.5 mphClear
8:53 PM84.9 °F71.1 °F63 %30.01 in8.0 miCalmMostly Cloudy
9:53 PM84.0 °F71.1 °F65 %30.01 in9.0 miCalmMostly Cloudy
10:11 PM82.9 °F71.1 °F67 %30.00 in8.0 miCalmThunderstormThunderstorm
10:53 PM79.0 °F66.0 °F64 %30.01 in10.0 miSW (220°)3.5 mph0.07 inThunderstormMostly Cloudy
11:12 PM78.1 °F66.9 °F68 %30.01 in10.0 miCalmScattered Clouds
11:53 PM73.9 °F68.0 °F82 %30.01 in10.0 miSE (130°)4.6 mphPartly Cloudy
Hourly data recorded from KHGR, located miles away from Williamsport, Maryland







STORIES FROM OUR PARTNERS